• In Schweiz
  • Länderverzeichnis
  • Für 7 Tage
  • Wassertemperatur
  • Satellitenkarten
  • Wetterkarte
  • Widgets
  • user-avatar
    Anmelden

    Stündliche Wetter Warwick

    Heute, 21 Februar, Mittwoch

    Zeit Temperatur Niederschläge Wind Luftdruck Luftfeuchtigkeit
    00:00 +4°C° 0 mm 4 m/S 765 mmHg 87%
    01:00 +4°C° 0 mm 3 m/S 765 mmHg 88%
    02:00 +4°C° 0 mm 3 m/S 765 mmHg 89%
    03:00 +4°C° 0 mm 2 m/S 765 mmHg 90%
    04:00 +4°C° 0 mm 2 m/S 765 mmHg 91%
    05:00 +3°C° 0 mm 2 m/S 765 mmHg 92%
    06:00 +4°C° 0 mm 1 m/S 765 mmHg 93%
    07:00 +4°C° 0 mm 1 m/S 765 mmHg 90%
    08:00 +4°C° 0 mm 1 m/S 765 mmHg 88%
    09:00 +5°C° 0 mm 1 m/S 765 mmHg 85%
    10:00 +6°C° 0 mm 1 m/S 765 mmHg 81%
    11:00 +6°C° 0 mm 2 m/S 765 mmHg 77%
    12:00 +7°C° 0 mm 2 m/S 765 mmHg 73%
    13:00 +7°C° 0 mm 2 m/S 765 mmHg 72%
    14:00 +7°C° 0 mm 2 m/S 764 mmHg 72%
    15:00 +7°C° 0 mm 2 m/S 764 mmHg 71%
    16:00 +6°C° 0 mm 2 m/S 764 mmHg 75%
    17:00 +6°C° 0 mm 2 m/S 764 mmHg 79%
    18:00 +5°C° 0 mm 2 m/S 764 mmHg 84%
    19:00 +4°C° 0 mm 2 m/S 764 mmHg 86%
    20:00 +4°C° 0 mm 2 m/S 764 mmHg 89%
    21:00 +3°C° 0 mm 2 m/S 764 mmHg 91%
    22:00 +3°C° 0 mm 2 m/S 764 mmHg 92%
    23:00 +2°C° 0 mm 2 m/S 764 mmHg 93%

    Morgen, 22 Februar, Donnerstag

    Zeit Temperatur Niederschläge Wind Luftdruck Luftfeuchtigkeit
    00:00 +2°C° 0 mm 2 m/S 764 mmHg 94%
    01:00 +1°C° 0 mm 2 m/S 764 mmHg 95%
    02:00 +1°C° 0 mm 2 m/S 763 mmHg 95%
    03:00 +2°C° 0 mm 1 m/S 763 mmHg 95%
    04:00 +1°C° 0 mm 2 m/S 763 mmHg 95%
    05:00 -1°C° 0 mm 2 m/S 763 mmHg 96%
    06:00 -1°C° 0 mm 2 m/S 763 mmHg 96%
    07:00 +1°C° 0 mm 2 m/S 763 mmHg 93%
    08:00 +2°C° 0 mm 2 m/S 763 mmHg 91%
    09:00 +2°C° 0 mm 2 m/S 763 mmHg 89%
    10:00 +3°C° 0 mm 2 m/S 763 mmHg 83%
    11:00 +4°C° 0 mm 2 m/S 763 mmHg 77%
    12:00 +4°C° 0 mm 3 m/S 763 mmHg 71%
    13:00 +5°C° 0 mm 3 m/S 762 mmHg 68%
    14:00 +6°C° 0 mm 2 m/S 762 mmHg 66%
    15:00 +6°C° 0 mm 2 m/S 762 mmHg 64%
    16:00 +5°C° 0 mm 2 m/S 762 mmHg 67%
    17:00 +4°C° 0 mm 2 m/S 762 mmHg 71%
    18:00 +3°C° 0 mm 2 m/S 762 mmHg 75%
    19:00 +2°C° 0 mm 2 m/S 762 mmHg 77%
    20:00 +1°C° 0 mm 2 m/S 762 mmHg 80%
    21:00 -1°C° 0 mm 3 m/S 762 mmHg 83%
    22:00 -1°C° 0 mm 3 m/S 762 mmHg 82%
    23:00 -1°C° 0 mm 2 m/S 762 mmHg 82%

    übermorgen, 23 Februar, Freitag

    Zeit Temperatur Niederschläge Wind Luftdruck Luftfeuchtigkeit
    00:00 -2°C° 0 mm 2 m/S 762 mmHg 82%
    01:00 -2°C° 0 mm 2 m/S 762 mmHg 81%
    02:00 -2°C° 0 mm 2 m/S 762 mmHg 81%
    03:00 -2°C° 0 mm 2 m/S 762 mmHg 81%
    04:00 -2°C° 0 mm 2 m/S 762 mmHg 82%
    05:00 -2°C° 0 mm 2 m/S 762 mmHg 83%
    06:00 -2°C° 0 mm 2 m/S 762 mmHg 84%
    07:00 -1°C° 0 mm 3 m/S 762 mmHg 80%
    08:00 0°C° 0 mm 3 m/S 762 mmHg 76%
    09:00 0°C° 0 mm 4 m/S 762 mmHg 71%
    10:00 +1°C° 0 mm 4 m/S 762 mmHg 68%
    11:00 +2°C° 0 mm 5 m/S 762 mmHg 64%
    12:00 +3°C° 0 mm 5 m/S 762 mmHg 60%
    13:00 +3°C° 0 mm 5 m/S 761 mmHg 58%
    14:00 +3°C° 0 mm 5 m/S 761 mmHg 56%
    15:00 +5°C° 0 mm 5 m/S 760 mmHg 55%
    16:00 +2°C° 0 mm 5 m/S 760 mmHg 60%
    17:00 +1°C° 0 mm 4 m/S 760 mmHg 65%
    18:00 0°C° 0 mm 4 m/S 760 mmHg 70%
    19:00 -1°C° 0 mm 4 m/S 760 mmHg 72%
    20:00 -2°C° 0 mm 4 m/S 760 mmHg 75%
    21:00 -2°C° 0 mm 4 m/S 760 mmHg 77%
    22:00 -2°C° 0 mm 4 m/S 760 mmHg 78%
    23:00 -2°C° 0 mm 4 m/S 761 mmHg 78%

    24 Februar, Samstag

    Zeit Temperatur Niederschläge Wind Luftdruck Luftfeuchtigkeit
    00:00 -3°C° 0 mm 4 m/S 761 mmHg 78%
    01:00 -3°C° 0 mm 4 m/S 760 mmHg 77%
    02:00 -3°C° 0 mm 4 m/S 760 mmHg 76%
    03:00 -3°C° 0 mm 4 m/S 760 mmHg 76%
    04:00 -3°C° 0 mm 4 m/S 760 mmHg 74%
    05:00 -3°C° 0 mm 4 m/S 760 mmHg 72%
    06:00 -3°C° 0 mm 4 m/S 761 mmHg 70%
    07:00 -2°C° 0 mm 5 m/S 761 mmHg 67%
    08:00 -3°C° 0 mm 6 m/S 761 mmHg 63%
    09:00 -2°C° 0 mm 6 m/S 761 mmHg 59%
    10:00 -1°C° 0 mm 6 m/S 761 mmHg 56%
    11:00 +2°C° 0 mm 6 m/S 761 mmHg 53%
    12:00 +3°C° 0 mm 6 m/S 761 mmHg 50%
    13:00 +3°C° 0 mm 6 m/S 761 mmHg 50%
    14:00 +3°C° 0 mm 6 m/S 761 mmHg 50%
    15:00 +3°C° 0 mm 6 m/S 761 mmHg 50%
    16:00 +2°C° 0 mm 6 m/S 761 mmHg 54%
    17:00 +1°C° 0 mm 6 m/S 762 mmHg 58%
    18:00 -1°C° 0 mm 5 m/S 762 mmHg 62%
    19:00 -1°C° 0 mm 5 m/S 762 mmHg 66%
    20:00 -1°C° 0 mm 5 m/S 763 mmHg 69%
    21:00 -2°C° 0 mm 5 m/S 763 mmHg 73%
    22:00 -2°C° 0 mm 5 m/S 763 mmHg 74%
    23:00 -2°C° 0 mm 5 m/S 763 mmHg 75%

    25 Februar, Sonntag

    Zeit Temperatur Niederschläge Wind Luftdruck Luftfeuchtigkeit
    00:00 -2°C° 0 mm 5 m/S 764 mmHg 76%
    01:00 -2°C° 0 mm 5 m/S 764 mmHg 76%
    02:00 -2°C° 0 mm 5 m/S 764 mmHg 76%
    03:00 -2°C° 0 mm 5 m/S 764 mmHg 76%
    04:00 -2°C° 0 mm 5 m/S 764 mmHg 76%
    05:00 -2°C° 0 mm 5 m/S 764 mmHg 77%
    06:00 -4°C° 0 mm 5 m/S 765 mmHg 77%
    07:00 -3°C° 0 mm 6 m/S 765 mmHg 73%
    08:00 -3°C° 0 mm 6 m/S 765 mmHg 69%
    09:00 -2°C° 0 mm 7 m/S 766 mmHg 65%
    10:00 -1°C° 0 mm 7 m/S 766 mmHg 61%
    11:00 +1°C° 0 mm 6 m/S 766 mmHg 56%
    12:00 +2°C° 0 mm 6 m/S 766 mmHg 52%
    13:00 +2°C° 0 mm 6 m/S 766 mmHg 52%
    14:00 +2°C° 0 mm 6 m/S 766 mmHg 52%
    15:00 +2°C° 0 mm 6 m/S 766 mmHg 52%
    16:00 +1°C° 0 mm 5 m/S 766 mmHg 56%
    17:00 -1°C° 0 mm 5 m/S 766 mmHg 61%
    18:00 -2°C° 0 mm 4 m/S 766 mmHg 65%
    19:00 -3°C° 0 mm 4 m/S 766 mmHg 66%
    20:00 -3°C° 0 mm 4 m/S 767 mmHg 68%
    21:00 -4°C° 0 mm 4 m/S 767 mmHg 69%
    22:00 -4°C° 0 mm 4 m/S 767 mmHg 70%
    23:00 -4°C° 0 mm 4 m/S 767 mmHg 71%

    26 Februar, Montag

    Zeit Temperatur Niederschläge Wind Luftdruck Luftfeuchtigkeit
    00:00 -4°C° 0 mm 4 m/S 767 mmHg 72%
    01:00 -4°C° 0 mm 4 m/S 767 mmHg 71%
    02:00 -5°C° 0 mm 3 m/S 767 mmHg 70%
    03:00 -5°C° 0 mm 3 m/S 767 mmHg 70%
    04:00 -5°C° 0 mm 4 m/S 767 mmHg 68%
    05:00 -5°C° 0 mm 4 m/S 767 mmHg 66%
    06:00 -5°C° 0 mm 4 m/S 767 mmHg 64%
    07:00 -4°C° 0 mm 4 m/S 767 mmHg 59%
    08:00 -4°C° 0 mm 5 m/S 767 mmHg 53%
    09:00 -3°C° 0 mm 6 m/S 767 mmHg 48%
    10:00 -2°C° 0 mm 6 m/S 767 mmHg 45%
    11:00 -2°C° 0 mm 6 m/S 767 mmHg 43%
    12:00 -1°C° 0 mm 6 m/S 766 mmHg 40%
    13:00 -1°C° 0 mm 6 m/S 766 mmHg 41%
    14:00 -1°C° 0 mm 6 m/S 766 mmHg 43%
    15:00 -1°C° 0 mm 6 m/S 765 mmHg 44%
    16:00 -2°C° 0 mm 6 m/S 765 mmHg 47%
    17:00 -2°C° 0 mm 5 m/S 765 mmHg 51%
    18:00 -4°C° 0 mm 5 m/S 765 mmHg 54%
    19:00 -5°C° 0 mm 5 m/S 765 mmHg 56%
    20:00 -5°C° 0 mm 5 m/S 766 mmHg 57%
    21:00 -6°C° 0 mm 5 m/S 766 mmHg 59%
    22:00 -5°C° 0 mm 4 m/S 766 mmHg 60%
    23:00 -5°C° 0 mm 4 m/S 766 mmHg 61%
    Mehr zeigen